Oshkosh, WI

2:59 PM CDT on August 28, 2016 (GMT -0500)
Wittman Regional

Weather History for KOSH - April, 2014

Change the Weather History Date:

Monday, April 28, 2014

  Actual Average Record
Temperature  
Mean Temperature 46 °F -  
Max Temperature 50 °F 60 °F 83 °F (1986)
Min Temperature 42 °F 40 °F 26 °F (1965)
Degree Days  
Heating Degree Days 18    
Moisture  
Dew Point 35 °F    
Average Humidity 67    
Maximum Humidity 82    
Minimum Humidity 48    
Precipitation  
Precipitation 0.14 in - - ()
Sea Level Pressure  
Sea Level Pressure 29.80 in    
Wind  
Wind Speed 17 mph (ENE)    
Max Wind Speed 25 mph    
Max Gust Speed 34 mph    
Visibility 9 miles    
Events Rain    
Averages and records for this station are not official NWS values.
T = Trace of Precipitation, MM = Missing Value Source: NWS Daily Summary

Daily Weather History Graph

Daily Weather History Graph

Search for Another Location

Airport or City:

Trip Planner

Search our weather history database for the weather conditions in past years. The results will help you decide how hot, cold, wet, or windy it might be!

Date:

Astronomy

Apr. 28, 2014 Rise Set
Actual Time 5:50 AM CDT 7:53 PM CDT
Civil Twilight 5:18 AM CDT 8:25 PM CDT
Nautical Twilight 4:40 AM CDT 9:04 PM CDT
Astronomical Twilight 3:58 AM CDT 9:46 PM CDT
Moon 5:30 AM CDT 7:30 PM CDT
Length of Visible Light 15h 06m
Length of Day
14h 03m
Waning Crescent, 0% of the Moon is Illuminated
Apr 28
Waning Crescent
Apr 29
New
May 6
First Quarter
May 14
Full
May 21
Last Quarter

Hourly Weather History & Observations

Time (CDT) Temp. Windchill Dew Point Humidity Pressure Visibility Wind Dir Wind Speed Gust Speed Precip Events Conditions
12:53 AM 44.1 °F 37.4 °F 33.1 °F 65% 29.94 in 10.0 mi East 13.8 mph 24.2 mph 0.00 in Rain Light Rain
1:53 AM 43.0 °F 35.7 °F 33.1 °F 68% 29.93 in 10.0 mi East 15.0 mph 25.3 mph 0.02 in Rain Light Rain
3:53 AM 44.1 °F 36.2 °F 33.1 °F 65% 29.89 in 10.0 mi East 18.4 mph 29.9 mph 0.01 in Rain Light Rain
5:53 AM 44.1 °F 36.2 °F 32.0 °F 63% 29.87 in 10.0 mi East 18.4 mph 27.6 mph N/A   Overcast
6:53 AM 45.0 °F 37.4 °F 30.9 °F 58% 29.87 in 10.0 mi East 18.4 mph 26.5 mph N/A   Overcast
7:53 AM 45.0 °F 37.4 °F 30.9 °F 58% 29.86 in 10.0 mi East 18.4 mph 28.8 mph N/A   Overcast
9:53 AM 46.0 °F 38.0 °F 30.9 °F 56% 29.84 in 10.0 mi East 21.9 mph 31.1 mph N/A   Overcast
10:53 AM 48.9 °F - 30.9 °F 50% 29.80 in 10.0 mi East 25.3 mph 34.5 mph N/A   Clear
11:53 AM 50.0 °F - 30.9 °F 48% 29.80 in 10.0 mi East 21.9 mph 28.8 mph N/A   Mostly Cloudy
12:53 PM 48.0 °F - 34.0 °F 58% 29.82 in 10.0 mi East 18.4 mph 27.6 mph 0.02 in Rain Light Rain
1:53 PM 48.9 °F - 33.1 °F 54% 29.79 in 10.0 mi East 19.6 mph 31.1 mph 0.01 in   Overcast
2:53 PM 48.0 °F - 36.0 °F 63% 29.76 in 10.0 mi ENE 16.1 mph 25.3 mph 0.00 in Rain Light Rain
3:33 PM 46.0 °F 39.6 °F 37.9 °F 73% 29.76 in 3.0 mi East 15.0 mph 25.3 mph 0.12 in Rain Rain
3:44 PM 46.0 °F 39.9 °F 39.0 °F 76% 29.77 in 2.0 mi ENE 13.8 mph - 0.16 in Rain Rain
4:53 PM 46.0 °F 39.6 °F 37.9 °F 73% 29.77 in 10.0 mi ENE 15.0 mph - 0.01 in   Overcast
5:53 PM 45.0 °F 37.4 °F 37.0 °F 74% 29.75 in 10.0 mi ENE 18.4 mph 24.2 mph N/A   Overcast
6:53 PM 45.0 °F 36.9 °F 37.9 °F 76% 29.75 in 10.0 mi ENE 20.7 mph 27.6 mph N/A   Overcast
7:53 PM 45.0 °F 37.9 °F 37.0 °F 74% 29.76 in 10.0 mi NE 16.1 mph 25.3 mph N/A   Overcast
8:53 PM 44.1 °F 36.5 °F 37.0 °F 76% 29.76 in 10.0 mi NE 17.3 mph 23.0 mph N/A   Overcast
9:53 PM 43.0 °F 35.7 °F 37.9 °F 82% 29.75 in 10.0 mi ENE 15.0 mph - 0.02 in Rain Light Rain
10:53 PM 43.0 °F 35.1 °F 37.0 °F 80% 29.73 in 10.0 mi ENE 17.3 mph 26.5 mph 0.03 in   Overcast
11:53 PM 42.1 °F 34.5 °F 37.0 °F 82% 29.72 in 6.0 mi NE 15.0 mph 20.7 mph 0.02 in Rain Light Rain